[[{"header":{"parameterUnit":"m.s-1","parameterCategory":1,"la1":30.2991,"la2":30.254,"lo1":-89.0895,"lo2":-89.0444,"dy":0.0017,"dx":0.0017,"nx":28,"ny":28,"refTime":"2024-08-20T03:00:00:Z","depth":0,"parameterNumber":2,"parameterNumberName":"U-component_of_WINDS"},"data":[0,0,0,0,0,0,0,0,0,0,0,0,0,0,0,0,0,0,0,0,0,0,0,0,0,0,0,0,0,0,0,0,0,0,0,0,0,0,0,0,0,0,0,0,0,0,0,0,0,0,0,0,0,0,0,0,0,0,0.9779,0.9779,0,0.981,0.981,0.981,0.9852,0.9852,0.9853,0.9854,0.9884,0.9884,0.9884,0,0,0,0,0,0,0,0,0,0,0,0,0,0.9755,0.9756,0.9779,0.9779,0.978,0.981,0.981,0.981,0.9852,0.9853,0.9853,0.9854,0.9884,0.9884,0.9884,0,0,0,0,0,0,0,0,0,0,0,0,0,0.9774,0.9756,0.9779,0.9804,0.9807,0.9809,0.981,0.9811,0.9851,0.9853,0.9854,0.9855,0.9884,0.9884,0.9884,0.9865,0,0,0.9885,0.9885,0,0,0,0,0,0,0,0,0.9773,0.9774,0.98,0.9802,0.9805,0.9828,0.9813,0.9829,0.9851,0.9834,0.9854,0.9855,0.9864,0.9866,0.987,0.9866,0.9867,0.9885,0.9885,0.9885,0.9885,0,0,0,0,0,0,0,0.9771,0.9773,0.9791,0.98,0.9803,0.9813,0.9817,0.9816,0.9843,0.9836,0.9839,0.9842,0.9866,0.9869,0.9871,0.9868,0.9885,0.9885,0.9885,0.9885,0.9849,0.9848,0,0,0,0,0,0,0.9766,0.9772,0.979,0.9792,0.9791,0.9813,0.9817,0.982,0.9843,0.9848,0.9841,0.9844,0.9868,0.987,0.9872,0.9849,0.9885,0.9885,0.9886,0.985,0.9848,0.9847,0,0,0,0,0,0,0.9766,0.9768,0.9789,0.9783,0.9786,0.9812,0.9815,0.982,0.9823,0.9847,0.9852,0.984,0.9869,0.9872,0.9866,0.9851,0.9886,0.9886,0.9851,0.9849,0.9848,0.9804,0,0,0,0,0,0,0.9765,0.9767,0.976,0.9782,0.9787,0.9783,0.9814,0.9819,0.9823,0.9827,0.9847,0.9851,0.987,0.9865,0.9866,0.9852,0.9886,0.9853,0.985,0.9848,0.9807,0.9802,0.9797,0,0,0,0,0,0.9764,0.9747,0.976,0.9761,0.9778,0.9782,0.9784,0.9806,0.9822,0.9815,0.9831,0.9851,0.9853,0.9865,0.9866,0.9851,0.9854,0.9851,0.9849,0.981,0.9803,0.9797,0,0,0,0,0,0,0.9722,0.975,0.9765,0.9754,0.9765,0.9789,0.978,0.9799,0.9805,0.9808,0.9836,0.984,0.983,0.9841,0.9853,0.9833,0.9856,0.9854,0.9826,0.982,0.9815,0.9811,0.9886,0,0,0,0,0,0.9711,0.9712,0.9737,0.9725,0.973,0.9754,0.9756,0.9773,0.9785,0.979,0.9805,0.9816,0.9819,0.982,0.9825,0.981,0.9814,0.98,0.9795,0.9791,0.9787,0.9779,0.9773,0.9839,0.9839,0.9839,0,0,0.9689,0.9705,0.9704,0.9717,0.9727,0.9727,0.9758,0.9756,0.9755,0.979,0.9785,0.9796,0.981,0.98,0.9796,0.9808,0.977,0.9787,0.9784,0.9783,0.9776,0.9769,0.9764,0.9837,0.9838,0.9838,0,0,0.9649,0.9662,0.9653,0.9662,0.9678,0.9694,0.9692,0.9713,0.9722,0.9718,0.9743,0.9743,0.9748,0.9757,0.9761,0.9724,0.9742,0.9725,0.9696,0.9687,0.9682,0.9678,0.9662,0.9657,0.9723,0.9722,0.9722,0,0.9619,0.962,0.9646,0.9642,0.9646,0.9678,0.9669,0.9677,0.9693,0.9695,0.9709,0.9716,0.9727,0.9718,0.9709,0.9713,0.971,0.9722,0.9681,0.9677,0.9673,0.9659,0.9653,0.972,0.972,0.9721,0.9721,0,0.9582,0.9582,0.9573,0.9587,0.9591,0.9585,0.9609,0.961,0.9626,0.9641,0.9636,0.9651,0.9659,0.9658,0.9674,0.9651,0.9658,0.9676,0.9699,0.9664,0.9651,0.9646,0.9717,0.9718,0.9718,0.9719,0,0,0.9514,0.9544,0.9539,0.9546,0.9566,0.9566,0.9561,0.9568,0.9568,0.9578,0.9573,0.9577,0.9594,0.9599,0.9617,0.9609,0.9577,0.9628,0.9629,0.9616,0.955,0.9535,0.9528,0.959,0.9589,0.9589,0.9548,0,0.9476,0.9468,0.9492,0.9478,0.9477,0.9508,0.9503,0.9514,0.9528,0.9529,0.9545,0.9546,0.9569,0.9572,0.9567,0.9582,0.9563,0.9586,0.9584,0.9584,0.9577,0.9522,0.9505,0.9466,0.9544,0.9543,0.9542,0,0.943,0.9437,0.9423,0.9443,0.9444,0.9439,0.9447,0.9449,0.9462,0.9473,0.9479,0.9499,0.9495,0.9519,0.9512,0.9527,0.9528,0.9536,0.9535,0.9533,0.9559,0.9517,0.9455,0.9448,0.9535,0.9536,0.9536,0,0.9379,0.9386,0.9378,0.9383,0.9407,0.9402,0.9412,0.9426,0.9429,0.9437,0.9438,0.9445,0.9448,0.9453,0.9474,0.949,0.9465,0.9491,0.9472,0.9471,0.9463,0.9463,0.9398,0.9468,0.9468,0.9468,0.9468,0,0.9332,0.9322,0.9356,0.9351,0.934,0.9367,0.9356,0.9368,0.9381,0.9378,0.9406,0.9403,0.9432,0.9432,0.9449,0.944,0.9442,0.9449,0.9453,0.9445,0.9444,0.9445,0.9447,0.9466,0.9467,0.9467,0.9467,0,0.9272,0.9295,0.9288,0.9311,0.9317,0.9308,0.9327,0.9323,0.9339,0.9335,0.9336,0.9361,0.9362,0.9384,0.9391,0.9402,0.9385,0.9396,0.9381,0.9383,0.9362,0.9362,0.9293,0.9285,0.9362,0.9361,0.936,0,0.924,0.9233,0.9255,0.9255,0.9263,0.9264,0.9267,0.9294,0.9295,0.931,0.9304,0.9308,0.9312,0.9312,0.933,0.9335,0.9344,0.932,0.9345,0.9337,0.9341,0.934,0.9339,0.9314,0.9313,0.9312,0.9311,0,0.9179,0.9191,0.9194,0.9201,0.9204,0.921,0.9219,0.9218,0.9247,0.9247,0.9249,0.9252,0.9259,0.9262,0.927,0.9279,0.9299,0.9304,0.9299,0.9289,0.928,0.9282,0.9363,0.9304,0.9305,0.9306,0.9306,0.9306,0.9131,0.9125,0.9139,0.9142,0.9151,0.9159,0.9155,0.9171,0.9173,0.918,0.9197,0.9195,0.9208,0.9221,0.9229,0.9228,0.924,0.9234,0.9232,0.9229,0.9224,0.9282,0.923,0.923,0.923,0.9231,0.9231,0,0.9069,0.908,0.9082,0.9093,0.9095,0.9115,0.9126,0.9125,0.9124,0.9135,0.9139,0.914,0.9143,0.9161,0.9166,0.9162,0.9171,0.9162,0.9161,0.9162,0.9214,0.9216,0.9154,0.9154,0.9154,0.9154,0.9154,0.9154,0.9037,0.9028,0.9041,0.9037,0.9049,0.9048,0.9052,0.9058,0.9067,0.9067,0.907,0.9082,0.9096,0.9101,0.9105,0.911,0.9109,0.9096,0.9104,0.9152,0.9159,0.9166,0.9168,0.9097,0.9097,0.9053,0.9052,0.9052]},{"header":{"parameterUnit":"m.s-1","parameterCategory":1,"la1":30.2991,"la2":30.254,"lo1":-89.0895,"lo2":-89.0444,"dy":0.0017,"dx":0.0017,"nx":28,"ny":28,"refTime":"2024-08-20T03:00:00:Z","depth":0,"parameterNumber":3,"parameterNumberName":"V-component_of_WINDS"},"data":[0,0,0,0,0,0,0,0,0,0,0,0,0,0,0,0,0,0,0,0,0,0,0,0,0,0,0,0,0,0,0,0,0,0,0,0,0,0,0,0,0,0,0,0,0,0,0,0,0,0,0,0,0,0,0,0,0,0,-0.617,-0.617,0,-0.6206,-0.6207,-0.6207,-0.6315,-0.6318,-0.632,-0.6322,-0.6358,-0.6357,-0.6355,0,0,0,0,0,0,0,0,0,0,0,0,0,-0.6194,-0.6193,-0.617,-0.617,-0.6171,-0.6206,-0.6207,-0.6207,-0.6315,-0.6318,-0.632,-0.6323,-0.6358,-0.6357,-0.6355,0,0,0,0,0,0,0,0,0,0,0,0,0,-0.6202,-0.6193,-0.617,-0.6229,-0.6234,-0.6206,-0.6207,-0.6207,-0.6314,-0.6318,-0.6321,-0.6325,-0.6359,-0.6357,-0.6355,-0.6272,0,0,-0.6349,-0.6349,0,0,0,0,0,0,0,0,-0.6202,-0.6201,-0.6219,-0.6224,-0.6231,-0.626,-0.6229,-0.6229,-0.6313,-0.6284,-0.6322,-0.6326,-0.6322,-0.6324,-0.6323,-0.6274,-0.6276,-0.6349,-0.6348,-0.6347,-0.6347,0,0,0,0,0,0,0,-0.6201,-0.62,-0.6184,-0.622,-0.6226,-0.6254,-0.6259,-0.6229,-0.6283,-0.6287,-0.6294,-0.6297,-0.6326,-0.6324,-0.6324,-0.6276,-0.6349,-0.6348,-0.6346,-0.6346,-0.6166,-0.6162,0,0,0,0,0,0,-0.6192,-0.6199,-0.6183,-0.6185,-0.6225,-0.625,-0.6256,-0.6247,-0.6283,-0.6292,-0.6294,-0.6302,-0.6326,-0.6326,-0.6326,-0.6234,-0.6347,-0.6346,-0.6344,-0.6169,-0.6165,-0.6161,0,0,0,0,0,0,-0.6192,-0.6189,-0.6182,-0.6194,-0.6195,-0.6246,-0.6235,-0.6246,-0.6244,-0.6289,-0.6299,-0.6283,-0.6329,-0.6329,-0.6286,-0.6237,-0.6345,-0.6343,-0.6174,-0.6168,-0.6163,-0.6048,0,0,0,0,0,0,-0.6192,-0.6189,-0.6157,-0.6193,-0.6194,-0.614,-0.6232,-0.6244,-0.6241,-0.6251,-0.6281,-0.6289,-0.6331,-0.6288,-0.6284,-0.6236,-0.6342,-0.6178,-0.6171,-0.6165,-0.6056,-0.6039,-0.6024,0,0,0,0,0,-0.6193,-0.6122,-0.6155,-0.6152,-0.6156,-0.6137,-0.6138,-0.6188,-0.6236,-0.6205,-0.6235,-0.6288,-0.6243,-0.6283,-0.6279,-0.623,-0.6182,-0.6173,-0.6165,-0.6063,-0.6042,-0.6025,0,0,0,0,0,0,-0.6077,-0.6128,-0.6165,-0.6103,-0.6115,-0.6155,-0.6118,-0.6164,-0.6162,-0.6172,-0.6235,-0.624,-0.6189,-0.6206,-0.6249,-0.6154,-0.6221,-0.6212,-0.6145,-0.6125,-0.611,-0.6107,-0.634,0,0,0,0,0,-0.6045,-0.6026,-0.607,-0.6012,-0.6016,-0.6066,-0.6059,-0.6098,-0.6112,-0.6117,-0.6144,-0.6156,-0.6145,-0.6136,-0.6128,-0.6059,-0.6069,-0.6024,-0.6008,-0.5995,-0.5986,-0.5954,-0.5935,-0.6134,-0.6134,-0.6134,0,0,-0.5978,-0.6003,-0.5986,-0.599,-0.6003,-0.5983,-0.6069,-0.6042,-0.6028,-0.6113,-0.6075,-0.6095,-0.6113,-0.6058,-0.6035,-0.607,-0.5933,-0.5984,-0.5973,-0.5972,-0.5944,-0.5925,-0.5908,-0.6129,-0.613,-0.613,0,0,-0.5844,-0.586,-0.5815,-0.5828,-0.5849,-0.5883,-0.5872,-0.5906,-0.5923,-0.5886,-0.5951,-0.5935,-0.5913,-0.5925,-0.5927,-0.5803,-0.5852,-0.5798,-0.5715,-0.5683,-0.5667,-0.5654,-0.5611,-0.5595,-0.5789,-0.5789,-0.5789,0,-0.5758,-0.5729,-0.5786,-0.5756,-0.5757,-0.5835,-0.5791,-0.58,-0.5817,-0.5816,-0.5855,-0.5833,-0.585,-0.58,-0.577,-0.5769,-0.576,-0.5795,-0.5665,-0.5652,-0.564,-0.5601,-0.5584,-0.5782,-0.5783,-0.5784,-0.5784,0,-0.5622,-0.5602,-0.5563,-0.5579,-0.5575,-0.5538,-0.559,-0.558,-0.562,-0.565,-0.5613,-0.5637,-0.5637,-0.5628,-0.5665,-0.5584,-0.5606,-0.5654,-0.5723,-0.5614,-0.5578,-0.5563,-0.5773,-0.5775,-0.5777,-0.5779,0,0,-0.5415,-0.5466,-0.5451,-0.5461,-0.5491,-0.5476,-0.5444,-0.5445,-0.5436,-0.5445,-0.5421,-0.5403,-0.5449,-0.5452,-0.5492,-0.5464,-0.5367,-0.5517,-0.5518,-0.5489,-0.5282,-0.5246,-0.5228,-0.54,-0.5398,-0.5396,-0.5281,0,-0.529,-0.5238,-0.5291,-0.5228,-0.5211,-0.5288,-0.526,-0.5276,-0.5304,-0.5294,-0.5326,-0.5313,-0.5374,-0.5377,-0.5352,-0.5384,-0.5326,-0.5393,-0.5379,-0.5378,-0.5373,-0.5208,-0.517,-0.506,-0.5267,-0.5265,-0.5263,0,-0.5137,-0.5142,-0.5078,-0.5116,-0.5111,-0.5085,-0.5093,-0.5082,-0.5103,-0.5126,-0.5131,-0.518,-0.5153,-0.5221,-0.5185,-0.5229,-0.5227,-0.5242,-0.5239,-0.524,-0.5314,-0.5206,-0.5027,-0.5011,-0.5241,-0.5243,-0.5244,0,-0.4995,-0.4985,-0.4947,-0.4953,-0.4995,-0.4976,-0.4993,-0.5017,-0.5016,-0.5022,-0.5023,-0.5025,-0.5027,-0.5028,-0.5078,-0.5122,-0.5036,-0.5107,-0.5056,-0.5054,-0.5034,-0.5035,-0.4853,-0.5031,-0.5031,-0.5031,-0.5031,0,-0.4851,-0.4809,-0.4884,-0.486,-0.4817,-0.4879,-0.4834,-0.4859,-0.4881,-0.4864,-0.493,-0.4913,-0.4979,-0.497,-0.5008,-0.4974,-0.4974,-0.4993,-0.5003,-0.4987,-0.4985,-0.4987,-0.4996,-0.5027,-0.5028,-0.5029,-0.5029,0,-0.4684,-0.4732,-0.4696,-0.474,-0.4751,-0.4717,-0.4756,-0.4737,-0.4771,-0.4749,-0.4747,-0.48,-0.4793,-0.4843,-0.4844,-0.4871,-0.4818,-0.4842,-0.4811,-0.4819,-0.4765,-0.477,-0.4579,-0.4558,-0.4748,-0.4746,-0.4744,0,-0.4589,-0.4559,-0.4602,-0.4596,-0.461,-0.4599,-0.4599,-0.466,-0.4657,-0.4681,-0.4659,-0.4657,-0.4659,-0.4645,-0.4683,-0.4686,-0.4711,-0.4644,-0.4711,-0.4697,-0.4712,-0.4713,-0.4712,-0.4629,-0.4627,-0.4625,-0.4623,0,-0.4416,-0.4442,-0.444,-0.4447,-0.4445,-0.4453,-0.4465,-0.4457,-0.4523,-0.4517,-0.4511,-0.4513,-0.4516,-0.4514,-0.4525,-0.4543,-0.4594,-0.4602,-0.4591,-0.4574,-0.4558,-0.4568,-0.4774,-0.4606,-0.4608,-0.4609,-0.461,-0.4611,-0.4283,-0.4262,-0.4289,-0.4286,-0.4302,-0.4313,-0.4298,-0.4331,-0.4328,-0.4336,-0.4372,-0.436,-0.4386,-0.4406,-0.4419,-0.4412,-0.4444,-0.4427,-0.4423,-0.4418,-0.4409,-0.4559,-0.4414,-0.4414,-0.4415,-0.4415,-0.4416,0,-0.4115,-0.4138,-0.4134,-0.4151,-0.4148,-0.4198,-0.4215,-0.421,-0.4199,-0.4219,-0.422,-0.4215,-0.4215,-0.4255,-0.4261,-0.4247,-0.4271,-0.4247,-0.4249,-0.4253,-0.4379,-0.4389,-0.4227,-0.4227,-0.4227,-0.4227,-0.4228,-0.4228,-0.4028,-0.3995,-0.4026,-0.4003,-0.4026,-0.4016,-0.4022,-0.4033,-0.4049,-0.4041,-0.4042,-0.4069,-0.4097,-0.4106,-0.4109,-0.4121,-0.412,-0.4088,-0.4108,-0.4225,-0.4243,-0.4261,-0.4271,-0.4087,-0.4087,-0.3983,-0.3982,-0.3981]}]]